Flag for Germany Weather past 2 weeks in Düren, North Rhine-Westphalia, Germany

Now
41 °F

Passing clouds.


Feels Like: 34 °F
Forecast: 42 / 47 °F
Wind: 12 mph from Southwest

Location: Noervenich

Current Time: Dec 20, 2014 at 2:17:06 AM

Latest Report: Dec 20, 2014 at 1:20 AM


Visibility: N/A

Pressure: 30.15 "Hg

Humidity: 81%

Dew point: 36 °F

Location of DürenLocation

Historic Weather in Düren — Graph

°F

Düren temperature yesterday

Maximum temperature yesterday: 54 °F (at 12:20 AM)
Minimum temperature yesterday: 43 °F (at 7:20 PM)
Average temperature yesterday: 50 °F

Past Weeks' High & Low Weather Summary

 TemperatureHumidityPressure
High55 °F (Dec 18, 3:20 PM)100% (Dec 6, 9:20 PM)30.39 "Hg (Dec 6, 9:20 PM)
Low32 °F (Dec 14, 4:20 AM)61% (Dec 7, 1:20 PM)29.45 "Hg (Dec 12, 2:04 PM)
Average42 °F85%29.96 "Hg
* Reported Dec 5 12:20 AM — Dec 20 12:20 AM, Düren, Weather by CustomWeather, © 2014

Note: Actual official high and low records may vary slightly from our data, if they occured in-between our weather recording intervals... More about our weather records

Advertising

Düren weather history for previous 24 hours

 ConditionsComfort  
Time TempWeatherWind HumidityBarometerVisibility
12:20 AM
Dec 20
43 °FPassing clouds.13 mph76%30.12 "HgN/A
11:20 PM
Dec 19
43 °FPassing clouds.9 mph76%30.12 "HgN/A
10:20 PM43 °FQuite cool.12 mph81%30.12 "HgN/A
9:20 PM43 °FQuite cool.10 mph81%30.09 "HgN/A
8:20 PM43 °FPassing clouds.9 mph81%30.07 "HgN/A
7:20 PM43 °FPassing clouds.8 mph81%30.04 "HgN/A
6:20 PM45 °FPassing clouds.10 mph81%30.01 "HgN/A
5:20 PM46 °FPassing clouds.7 mph76%29.98 "HgN/A
4:20 PM46 °FPartly sunny.10 mph82%29.95 "HgN/A
3:20 PM48 °FLight rain. Broken clouds.14 mph87%29.92 "HgN/A
2:20 PM52 °FRain. Fog.15 mph94%29.89 "Hg3 mi
1:20 PM54 °FLight rain. Broken clouds.14 mph82%29.83 "HgN/A
12:20 PM54 °FRain. Broken clouds.17 mph82%29.86 "Hg6 mi
11:20 AM54 °FLight rain. Cloudy.16 mph82%29.86 "Hg5 mi
10:20 AM52 °FRain. Mostly cloudy.14 mph88%29.86 "Hg4 mi
9:20 AM52 °FLight rain. Cloudy.12 mph88%29.86 "HgN/A
8:20 AM54 °FLight rain. Overcast.14 mph77%29.86 "HgN/A
7:20 AM54 °FPassing clouds.14 mph77%29.86 "HgN/A
6:20 AM54 °FPassing clouds.15 mph77%29.89 "HgN/A
5:20 AM54 °FPassing clouds.12 mph77%29.89 "HgN/A
4:20 AM54 °FPassing clouds.12 mph82%29.92 "HgN/A
3:20 AM54 °FPassing clouds.17 mph82%29.92 "HgN/A
2:20 AM54 °FPartly cloudy.16 mph82%29.92 "HgN/A
Weather by CustomWeather, © 2014

See weather overviewHow to use our weather pages